When you browse on this site, cookies collect data to enhance your experience and personalize the content and advertising you see.
Visit our Privacy Policy to learn more. By continuing to use the site, you agree to this use of cookies and data.
  • en Belgique
  • Liste des pays
  • À 7 jours
  • Température de l'eau
  • Carte météo
  • Widgets météo
  • user-avatar
    Se connecter

    Météo par heure à Kalgoorlie

    Ce jour, 11 Décembre, Mercredi

    Heure Température Précipitation Vent Pression Humidité
    00:00 +22°C° 0 mm 9 m/s 732 mmHg 39%
    01:00 +20°C° 0 mm 8 m/s 731 mmHg 46%
    02:00 +18°C° 0 mm 8 m/s 731 mmHg 54%
    03:00 +17°C° 0 mm 7 m/s 732 mmHg 55%
    04:00 +16°C° 0 mm 6 m/s 732 mmHg 57%
    05:00 +16°C° 0 mm 5 m/s 732 mmHg 58%
    06:00 +17°C° 0 mm 6 m/s 733 mmHg 53%
    07:00 +20°C° 0 mm 6 m/s 733 mmHg 48%
    08:00 +22°C° 0 mm 6 m/s 734 mmHg 43%
    09:00 +24°C° 0 mm 6 m/s 734 mmHg 37%
    10:00 +27°C° 0 mm 7 m/s 734 mmHg 32%
    11:00 +29°C° 0 mm 7 m/s 734 mmHg 26%
    12:00 +30°C° 0 mm 7 m/s 733 mmHg 24%
    13:00 +32°C° 0 mm 6 m/s 733 mmHg 21%
    14:00 +33°C° 0 mm 6 m/s 732 mmHg 19%
    15:00 +33°C° 0 mm 6 m/s 732 mmHg 18%
    16:00 +34°C° 0 mm 6 m/s 732 mmHg 17%
    17:00 +34°C° 0 mm 6 m/s 732 mmHg 17%
    18:00 +32°C° 0 mm 6 m/s 732 mmHg 18%
    19:00 +29°C° 0 mm 6 m/s 732 mmHg 20%
    20:00 +27°C° 0 mm 5 m/s 733 mmHg 22%
    21:00 +26°C° 0 mm 6 m/s 733 mmHg 25%
    22:00 +24°C° 0 mm 7 m/s 733 mmHg 29%
    23:00 +22°C° 0 mm 8 m/s 733 mmHg 32%

    Demain, 12 Décembre, Jeudi

    Heure Température Précipitation Vent Pression Humidité
    00:00 +21°C° 0 mm 7 m/s 733 mmHg 41%
    01:00 +18°C° 0 mm 7 m/s 733 mmHg 50%
    02:00 +17°C° 0 mm 6 m/s 732 mmHg 58%
    03:00 +16°C° 0 mm 6 m/s 733 mmHg 65%
    04:00 +15°C° 0 mm 5 m/s 733 mmHg 71%
    05:00 +14°C° 0 mm 5 m/s 734 mmHg 78%
    06:00 +16°C° 0 mm 6 m/s 734 mmHg 68%
    07:00 +19°C° 0 mm 6 m/s 735 mmHg 58%
    08:00 +21°C° 0 mm 7 m/s 735 mmHg 49%
    09:00 +23°C° 0 mm 7 m/s 735 mmHg 40%
    10:00 +27°C° 0 mm 7 m/s 735 mmHg 31%
    11:00 +30°C° 0 mm 7 m/s 734 mmHg 22%
    12:00 +32°C° 0 mm 7 m/s 734 mmHg 20%
    13:00 +33°C° 0 mm 6 m/s 733 mmHg 17%
    14:00 +35°C° 0 mm 6 m/s 732 mmHg 14%
    15:00 +35°C° 0 mm 6 m/s 732 mmHg 14%
    16:00 +35°C° 0 mm 6 m/s 732 mmHg 13%
    17:00 +35°C° 0 mm 6 m/s 732 mmHg 13%
    18:00 +33°C° 0 mm 5 m/s 732 mmHg 15%
    19:00 +30°C° 0 mm 5 m/s 733 mmHg 18%
    20:00 +28°C° 0 mm 5 m/s 733 mmHg 20%
    21:00 +27°C° 0 mm 6 m/s 733 mmHg 28%
    22:00 +24°C° 0 mm 8 m/s 733 mmHg 35%
    23:00 +23°C° 0 mm 9 m/s 734 mmHg 43%

    Après-demain, 13 Décembre, Vendredi

    Heure Température Précipitation Vent Pression Humidité
    00:00 +21°C° 0 mm 8 m/s 733 mmHg 47%
    01:00 +20°C° 0 mm 8 m/s 733 mmHg 51%
    02:00 +18°C° 0 mm 7 m/s 733 mmHg 55%
    03:00 +17°C° 0 mm 6 m/s 733 mmHg 57%
    04:00 +17°C° 0 mm 6 m/s 733 mmHg 60%
    05:00 +16°C° 0 mm 5 m/s 733 mmHg 62%
    06:00 +20°C° 0 mm 5 m/s 733 mmHg 52%
    07:00 +23°C° 0 mm 6 m/s 733 mmHg 43%
    08:00 +26°C° 0 mm 6 m/s 733 mmHg 34%
    09:00 +29°C° 0 mm 6 m/s 733 mmHg 29%
    10:00 +32°C° 0 mm 5 m/s 733 mmHg 23%
    11:00 +34°C° 0 mm 5 m/s 733 mmHg 18%
    12:00 +36°C° 0 mm 5 m/s 732 mmHg 16%
    13:00 +37°C° 0 mm 4 m/s 731 mmHg 14%
    14:00 +38°C° 0 mm 4 m/s 730 mmHg 11%
    15:00 +38°C° 0 mm 4 m/s 730 mmHg 11%
    16:00 +38°C° 0 mm 4 m/s 730 mmHg 11%
    17:00 +38°C° 0 mm 4 m/s 730 mmHg 10%
    18:00 +36°C° 0 mm 4 m/s 730 mmHg 12%
    19:00 +34°C° 0 mm 4 m/s 730 mmHg 14%
    20:00 +30°C° 0 mm 5 m/s 730 mmHg 15%
    21:00 +30°C° 0 mm 5 m/s 730 mmHg 16%
    22:00 +29°C° 0 mm 5 m/s 730 mmHg 17%
    23:00 +28°C° 0 mm 5 m/s 730 mmHg 18%

    14 Décembre, Samedi

    Heure Température Précipitation Vent Pression Humidité
    00:00 +27°C° 0 mm 5 m/s 730 mmHg 20%
    01:00 +26°C° 0 mm 5 m/s 730 mmHg 21%
    02:00 +25°C° 0 mm 5 m/s 729 mmHg 23%
    03:00 +23°C° 0 mm 5 m/s 729 mmHg 24%
    04:00 +23°C° 0 mm 5 m/s 729 mmHg 25%
    05:00 +22°C° 0 mm 4 m/s 729 mmHg 26%
    06:00 +26°C° 0 mm 5 m/s 730 mmHg 23%
    07:00 +29°C° 0 mm 6 m/s 730 mmHg 19%
    08:00 +34°C° 0 mm 6 m/s 730 mmHg 15%
    09:00 +35°C° 0 mm 5 m/s 730 mmHg 13%
    10:00 +37°C° 0 mm 4 m/s 729 mmHg 11%
    11:00 +38°C° 0 mm 3 m/s 729 mmHg 9%
    12:00 +39°C° 0 mm 3 m/s 728 mmHg 8%
    13:00 +40°C° 0 mm 2 m/s 728 mmHg 7%
    14:00 +40°C° 0 mm 2 m/s 727 mmHg 6%
    15:00 +40°C° 0 mm 2 m/s 726 mmHg 6%
    16:00 +40°C° 0 mm 2 m/s 726 mmHg 6%
    17:00 +40°C° 0 mm 2 m/s 726 mmHg 6%
    18:00 +37°C° 0 mm 2 m/s 726 mmHg 8%
    19:00 +33°C° 0 mm 1 m/s 725 mmHg 10%
    20:00 +30°C° 0 mm 1 m/s 725 mmHg 13%
    21:00 +30°C° 0 mm 2 m/s 725 mmHg 15%
    22:00 +30°C° 0 mm 2 m/s 725 mmHg 17%
    23:00 +30°C° 0 mm 3 m/s 726 mmHg 19%

    15 Décembre, Dimanche

    Heure Température Précipitation Vent Pression Humidité
    00:00 +30°C° 0 mm 4 m/s 725 mmHg 22%
    01:00 +30°C° 0 mm 4 m/s 725 mmHg 25%
    02:00 +29°C° 0 mm 5 m/s 725 mmHg 28%
    03:00 +28°C° 0 mm 4 m/s 725 mmHg 36%
    04:00 +27°C° 0 mm 3 m/s 725 mmHg 43%
    05:00 +26°C° 0 mm 2 m/s 725 mmHg 51%
    06:00 +29°C° 0 mm 2 m/s 725 mmHg 43%
    07:00 +33°C° 0 mm 3 m/s 726 mmHg 35%
    08:00 +36°C° 0 mm 4 m/s 726 mmHg 27%
    09:00 +39°C° 0 mm 5 m/s 726 mmHg 24%
    10:00 +40°C° 0 mm 7 m/s 726 mmHg 21%
    11:00 +43°C° 0 mm 9 m/s 726 mmHg 18%
    12:00 +43°C° 0 mm 9 m/s 725 mmHg 18%
    13:00 +42°C° 0 mm 9 m/s 725 mmHg 18%
    14:00 +42°C° 0 mm 10 m/s 724 mmHg 18%
    15:00 +42°C° 0 mm 9 m/s 724 mmHg 19%
    16:00 +42°C° 0 mm 9 m/s 724 mmHg 19%
    17:00 +40°C° 0 mm 9 m/s 724 mmHg 19%
    18:00 +38°C° 0 mm 9 m/s 724 mmHg 23%
    19:00 +37°C° 0 mm 8 m/s 724 mmHg 27%
    20:00 +34°C° 0 mm 7 m/s 724 mmHg 31%
    21:00 +33°C° 0 mm 8 m/s 724 mmHg 30%
    22:00 +33°C° 0 mm 8 m/s 724 mmHg 30%
    23:00 +33°C° 0 mm 8 m/s 724 mmHg 30%

    16 Décembre, Lundi

    Heure Température Précipitation Vent Pression Humidité
    00:00 +32°C° 0 mm 7 m/s 724 mmHg 33%
    01:00 +30°C° 0 mm 6 m/s 724 mmHg 36%
    02:00 +29°C° 0 mm 5 m/s 724 mmHg 38%
    03:00 +28°C° 0 mm 4 m/s 723 mmHg 42%
    04:00 +27°C° 0 mm 4 m/s 723 mmHg 46%
    05:00 +26°C° 0 mm 3 m/s 723 mmHg 50%
    06:00 +28°C° 0 mm 4 m/s 724 mmHg 45%
    07:00 +32°C° 0 mm 4 m/s 724 mmHg 39%
    08:00 +34°C° 0 mm 5 m/s 725 mmHg 34%
    09:00 +35°C° 0 mm 5 m/s 725 mmHg 30%
    10:00 +38°C° 0 mm 6 m/s 725 mmHg 27%
    11:00 +40°C° 0 mm 6 m/s 725 mmHg 24%
    12:00 +40°C° 0 mm 6 m/s 724 mmHg 22%
    13:00 +40°C° 0 mm 6 m/s 724 mmHg 21%
    14:00 +40°C° 0 mm 6 m/s 723 mmHg 19%
    15:00 +41°C° 0 mm 6 m/s 723 mmHg 17%
    16:00 +41°C° 0 mm 6 m/s 724 mmHg 15%
    17:00 +41°C° 0 mm 6 m/s 724 mmHg 13%
    18:00 +39°C° 0 mm 6 m/s 724 mmHg 15%
    19:00 +36°C° 0 mm 5 m/s 724 mmHg 18%
    20:00 +34°C° 0 mm 4 m/s 724 mmHg 20%
    21:00 +32°C° 0 mm 4 m/s 725 mmHg 28%
    22:00 +29°C° 0 mm 5 m/s 725 mmHg 37%
    23:00 +27°C° 0 mm 5 m/s 725 mmHg 46%
    Voir plus